Stündliche Wetter Jubail

Heute, 3 März, Mittwoch

Zeit Temperatur Niederschläge Wind Luftdruck Luftfeuchtigkeit
00:00 +20°C° 0 mm 6 m/S 764 mmHg 58%
01:00 +20°C° 0 mm 6 m/S 763 mmHg 58%
02:00 +18°C° 0 mm 7 m/S 763 mmHg 59%
03:00 +18°C° 0 mm 7 m/S 762 mmHg 59%
04:00 +18°C° 0 mm 7 m/S 763 mmHg 62%
05:00 +19°C° 0 mm 6 m/S 763 mmHg 65%
06:00 +19°C° 0 mm 6 m/S 763 mmHg 68%
07:00 +20°C° 0 mm 6 m/S 763 mmHg 61%
08:00 +21°C° 0 mm 6 m/S 764 mmHg 54%
09:00 +23°C° 0 mm 6 m/S 764 mmHg 46%
10:00 +24°C° 0 mm 6 m/S 764 mmHg 40%
11:00 +25°C° 0 mm 5 m/S 763 mmHg 34%
12:00 +26°C° 0 mm 5 m/S 763 mmHg 28%
13:00 +26°C° 0 mm 5 m/S 762 mmHg 28%
14:00 +26°C° 0 mm 6 m/S 762 mmHg 28%
15:00 +26°C° 0 mm 7 m/S 761 mmHg 28%
16:00 +24°C° 0 mm 6 m/S 761 mmHg 32%
17:00 +23°C° 0 mm 6 m/S 761 mmHg 37%
18:00 +22°C° 0 mm 5 m/S 761 mmHg 41%
19:00 +21°C° 0 mm 4 m/S 762 mmHg 45%
20:00 +21°C° 0 mm 3 m/S 762 mmHg 48%
21:00 +20°C° 0 mm 2 m/S 762 mmHg 52%
22:00 +20°C° 0 mm 2 m/S 762 mmHg 49%
23:00 +20°C° 0 mm 3 m/S 762 mmHg 47%

Morgen, 4 März, Donnerstag

Zeit Temperatur Niederschläge Wind Luftdruck Luftfeuchtigkeit
00:00 +19°C° 0 mm 3 m/S 762 mmHg 45%
01:00 +19°C° 0 mm 3 m/S 761 mmHg 44%
02:00 +19°C° 0 mm 2 m/S 761 mmHg 42%
03:00 +18°C° 0 mm 2 m/S 760 mmHg 41%
04:00 +18°C° 0 mm 2 m/S 760 mmHg 42%
05:00 +18°C° 0 mm 2 m/S 760 mmHg 43%
06:00 +18°C° 0 mm 3 m/S 760 mmHg 44%
07:00 +20°C° 0 mm 3 m/S 760 mmHg 40%
08:00 +21°C° 0 mm 3 m/S 761 mmHg 37%
09:00 +24°C° 0 mm 2 m/S 761 mmHg 34%
10:00 +25°C° 0 mm 2 m/S 760 mmHg 31%
11:00 +25°C° 0 mm 2 m/S 760 mmHg 27%
12:00 +26°C° 0 mm 2 m/S 760 mmHg 24%
13:00 +28°C° 0 mm 3 m/S 759 mmHg 22%
14:00 +29°C° 0 mm 3 m/S 759 mmHg 20%
15:00 +30°C° 0 mm 3 m/S 758 mmHg 18%
16:00 +29°C° 0 mm 4 m/S 758 mmHg 23%
17:00 +27°C° 0 mm 4 m/S 758 mmHg 28%
18:00 +26°C° 0 mm 5 m/S 758 mmHg 32%
19:00 +25°C° 0 mm 5 m/S 758 mmHg 35%
20:00 +24°C° 0 mm 6 m/S 758 mmHg 37%
21:00 +23°C° 0 mm 6 m/S 758 mmHg 39%
22:00 +23°C° 0 mm 7 m/S 758 mmHg 41%
23:00 +24°C° 0 mm 7 m/S 757 mmHg 43%

übermorgen, 5 März, Freitag

Zeit Temperatur Niederschläge Wind Luftdruck Luftfeuchtigkeit
00:00 +24°C° 0 mm 7 m/S 757 mmHg 45%
01:00 +23°C° 0 mm 7 m/S 757 mmHg 47%
02:00 +23°C° 0 mm 6 m/S 756 mmHg 48%
03:00 +23°C° 0 mm 6 m/S 756 mmHg 49%
04:00 +22°C° 0 mm 5 m/S 757 mmHg 48%
05:00 +22°C° 0 mm 4 m/S 758 mmHg 46%
06:00 +22°C° 0 mm 4 m/S 759 mmHg 44%
07:00 +22°C° 0 mm 6 m/S 760 mmHg 40%
08:00 +23°C° 0 mm 9 m/S 761 mmHg 36%
09:00 +23°C° 0 mm 11 m/S 762 mmHg 32%
10:00 +23°C° 0 mm 11 m/S 762 mmHg 29%
11:00 +24°C° 0 mm 10 m/S 762 mmHg 26%
12:00 +24°C° 0 mm 10 m/S 763 mmHg 23%
13:00 +24°C° 0 mm 10 m/S 762 mmHg 25%
14:00 +23°C° 0 mm 10 m/S 762 mmHg 27%
15:00 +23°C° 0 mm 9 m/S 762 mmHg 29%
16:00 +22°C° 0 mm 9 m/S 762 mmHg 34%
17:00 +21°C° 0 mm 8 m/S 763 mmHg 38%
18:00 +20°C° 0 mm 7 m/S 763 mmHg 43%
19:00 +20°C° 0 mm 6 m/S 763 mmHg 46%
20:00 +20°C° 0 mm 5 m/S 764 mmHg 49%
21:00 +20°C° 0 mm 5 m/S 764 mmHg 52%
22:00 +19°C° 0 mm 5 m/S 764 mmHg 54%
23:00 +19°C° 0 mm 6 m/S 764 mmHg 56%

6 März, Samstag

Zeit Temperatur Niederschläge Wind Luftdruck Luftfeuchtigkeit
00:00 +19°C° 0 mm 6 m/S 764 mmHg 58%
01:00 +18°C° 0 mm 7 m/S 764 mmHg 56%
02:00 +17°C° 0 mm 7 m/S 764 mmHg 55%
03:00 +17°C° 0 mm 8 m/S 763 mmHg 53%
04:00 +17°C° 0 mm 8 m/S 764 mmHg 56%
05:00 +17°C° 0 mm 8 m/S 764 mmHg 59%
06:00 +17°C° 0 mm 9 m/S 764 mmHg 62%
07:00 +18°C° 0 mm 9 m/S 765 mmHg 56%
08:00 +19°C° 0 mm 9 m/S 766 mmHg 51%
09:00 +21°C° 0 mm 9 m/S 766 mmHg 45%
10:00 +22°C° 0 mm 9 m/S 766 mmHg 42%
11:00 +23°C° 0 mm 9 m/S 765 mmHg 38%
12:00 +23°C° 0 mm 9 m/S 765 mmHg 34%
13:00 +23°C° 0 mm 9 m/S 764 mmHg 32%
14:00 +23°C° 0 mm 9 m/S 764 mmHg 30%
15:00 +23°C° 0 mm 9 m/S 763 mmHg 28%
16:00 +22°C° 0 mm 8 m/S 763 mmHg 31%
17:00 +21°C° 0 mm 7 m/S 763 mmHg 33%
18:00 +20°C° 0 mm 7 m/S 763 mmHg 36%
19:00 +20°C° 0 mm 6 m/S 764 mmHg 38%
20:00 +19°C° 0 mm 6 m/S 764 mmHg 41%
21:00 +19°C° 0 mm 5 m/S 764 mmHg 43%
22:00 +19°C° 0 mm 6 m/S 764 mmHg 40%
23:00 +17°C° 0 mm 6 m/S 764 mmHg 36%

7 März, Sonntag

Zeit Temperatur Niederschläge Wind Luftdruck Luftfeuchtigkeit
00:00 +17°C° 0 mm 6 m/S 763 mmHg 33%
01:00 +17°C° 0 mm 7 m/S 763 mmHg 32%
02:00 +16°C° 0 mm 7 m/S 763 mmHg 31%
03:00 +16°C° 0 mm 7 m/S 762 mmHg 30%
04:00 +16°C° 0 mm 7 m/S 763 mmHg 32%
05:00 +16°C° 0 mm 7 m/S 763 mmHg 34%
06:00 +15°C° 0 mm 7 m/S 763 mmHg 36%
07:00 +17°C° 0 mm 7 m/S 763 mmHg 34%
08:00 +20°C° 0 mm 7 m/S 763 mmHg 31%
09:00 +21°C° 0 mm 7 m/S 764 mmHg 28%
10:00 +22°C° 0 mm 7 m/S 763 mmHg 25%
11:00 +24°C° 0 mm 7 m/S 763 mmHg 23%
12:00 +26°C° 0 mm 7 m/S 762 mmHg 20%
13:00 +26°C° 0 mm 7 m/S 762 mmHg 21%
14:00 +26°C° 0 mm 7 m/S 761 mmHg 21%
15:00 +24°C° 0 mm 7 m/S 760 mmHg 22%
16:00 +23°C° 0 mm 6 m/S 761 mmHg 28%
17:00 +22°C° 0 mm 5 m/S 761 mmHg 33%
18:00 +20°C° 0 mm 4 m/S 761 mmHg 38%
19:00 +20°C° 0 mm 4 m/S 761 mmHg 39%
20:00 +19°C° 0 mm 3 m/S 761 mmHg 40%
21:00 +19°C° 0 mm 2 m/S 761 mmHg 41%
22:00 +19°C° 0 mm 3 m/S 761 mmHg 37%
23:00 +19°C° 0 mm 3 m/S 761 mmHg 34%

8 März, Montag

Zeit Temperatur Niederschläge Wind Luftdruck Luftfeuchtigkeit
00:00 +18°C° 0 mm 3 m/S 761 mmHg 30%
01:00 +18°C° 0 mm 3 m/S 760 mmHg 30%
02:00 +18°C° 0 mm 3 m/S 760 mmHg 29%
03:00 +18°C° 0 mm 4 m/S 760 mmHg 28%
04:00 +17°C° 0 mm 3 m/S 760 mmHg 28%
05:00 +17°C° 0 mm 3 m/S 760 mmHg 29%
06:00 +17°C° 0 mm 3 m/S 760 mmHg 29%
07:00 +19°C° 0 mm 3 m/S 761 mmHg 25%
08:00 +21°C° 0 mm 4 m/S 761 mmHg 22%
09:00 +23°C° 0 mm 4 m/S 762 mmHg 18%
10:00 +25°C° 0 mm 3 m/S 761 mmHg 16%
11:00 +26°C° 0 mm 3 m/S 761 mmHg 15%
12:00 +28°C° 0 mm 3 m/S 760 mmHg 13%
13:00 +28°C° 0 mm 3 m/S 760 mmHg 14%
14:00 +28°C° 0 mm 3 m/S 759 mmHg 15%
15:00 +28°C° 0 mm 4 m/S 759 mmHg 15%
16:00 +27°C° 0 mm 3 m/S 759 mmHg 19%
17:00 +25°C° 0 mm 3 m/S 759 mmHg 24%
18:00 +24°C° 0 mm 2 m/S 759 mmHg 28%
19:00 +24°C° 0 mm 3 m/S 759 mmHg 28%
20:00 +22°C° 0 mm 3 m/S 760 mmHg 29%
21:00 +22°C° 0 mm 3 m/S 760 mmHg 30%
22:00 +21°C° 0 mm 3 m/S 759 mmHg 30%
23:00 +21°C° 0 mm 3 m/S 759 mmHg 30%
Mehr zeigen

Wir brauchen deine Erlaubnis

Meteoprog und unser Service Anbieter werden persönliche Daten aufbewahren, so wie Cookies, Geräte Bezeichnung oder ähnliche Technologien von deinem Gerät und Prozess, so wie Persönliche Daten Inhalte und Werbungen, genauso wie social Media und den Verkehr zu analysieren.

  • Aufbewahrung und/oder Zugang zu deiner Geräte Informationen.

    Cookies, Geräte Bezeichnung oder andere Informationen, können aufbewahrt oder Zugang zu deinem Gerät erhalten, für den Grund, der oben angegeben wird.

  • Personalisierte Werbung und Inhalte, Messungen, Einblick in das Publikum und Produkt Entwicklung.

    Werbungen und Inhalte können personalisiert werden, basierend auf ein Profil. Mehr Daten können besser personalisierte Werbungen und Inhalte hinzufügen. Werbung und Inhalte können gezeigt und gemessen werden. Einblicke über das Publikum, welche die Werbung gesehen haben und den Inhalt, können abgeleitet werden. So wie Daten können genutzt werden, um es zu verbessern oder die Benutzer Erfahrung zu verbessern das System und die Software.

Wenn du “Ich stimme zu” klickst, erlaubst du uns, die Cookies zu benutzen die Geräte Bezeichnung, den Web oder ähnliche Technologien zu benutzen. Deine Settings, können in deinem Gerät bei deinem Browser geändert werden.

Für den bestimmten Zweck, berechtigten Interessen beruhen darauf, mehr als auf den Inhalt. Du kannst mehr darüber in unseren Privaten und Cookie Politik lesen.